GFSWCAN_con_3kmhel_090.txt.gz
Helicity
283 369 128 112 52 46 61 46 39 43 37 26 13 -19 -0 27 68 104 91 65 121 174 111 119 109 40 21 -37 -24 77 64 43 47 49 39 22 17 12 21 11 20 26 33 33 29 31 31 38 38 40 44 59 35 66
349 288 134 108 58 65 81 49 67 59 42 28 11 -10 18 33 69 102 115 84 128 158 189 137 70 35 13 25 -17 18 74 61 48 50 45 24 22 17 14 33 16 30 17 28 24 23 19 32 37 41 40 44 64 63
308 258 152 115 76 84 91 76 68 39 43 32 19 -0 24 33 67 102 103 107 124 160 110 176 119 88 56 19 29 -25 44 50 41 27 43 20 17 3 20 14 16 13 8 24 39 28 28 22 30 42 58 49 44 49
420 347 125 116 95 107 89 109 54 39 45 34 27 6 24 31 65 119 100 79 77 112 137 60 62 25 31 31 -12 -4 55 43 3 27 30 11 8 -7 -1 3 11 1 24 24 28 24 22 22 24 27 48 55 60 62
451 342 153 136 119 118 120 106 35 48 47 37 34 20 31 46 130 124 94 64 41 111 128 37 -8 55 71 12 -7 -5 2 69 58 56 36 23 5 1 1 15 20 13 14 21 21 17 22 21 31 39 47 51 58 46
487 377 169 130 136 132 134 67 55 55 46 43 30 31 33 43 135 87 101 68 37 55 103 80 21 29 78 26 3 7 20 44 66 77 56 31 18 17 8 1 -1 14 24 21 26 27 33 45 55 54 52 53 50 50
579 341 167 141 137 130 136 49 74 62 43 34 25 26 41 44 77 82 108 95 45 52 92 105 65 67 70 32 14 14 33 48 55 67 70 52 42 32 28 36 18 29 34 35 45 27 37 30 35 70 75 72 63 53
585 218 175 157 147 143 114 65 78 51 59 36 40 58 95 110 108 91 69 40 51 84 61 141 94 74 46 39 21 35 29 38 57 69 69 58 49 27 18 6 20 34 43 48 59 59 42 53 74 79 76 75 79 69
372 210 165 169 141 147 70 83 78 67 55 56 82 107 78 60 60 71 38 61 60 110 194 172 150 114 41 43 41 41 45 23 37 52 56 63 53 32 11 7 29 39 38 35 52 61 59 66 74 83 84 85 60 53
251 196 188 162 150 122 62 93 79 82 64 102 64 55 44 33 54 84 62 79 100 110 123 187 50 66 81 52 55 48 39 32 29 18 46 57 40 51 75 65 56 55 69 60 35 38 46 60 72 74 70 57 43 49
211 183 179 149 138 76 82 90 111 98 108 54 55 58 56 46 86 67 68 85 95 139 134 126 98 102 64 40 50 51 46 37 19 11 28 27 43 46 42 53 67 79 91 84 82 79 79 81 76 69 69 67 60 63
217 211 176 151 101 57 96 73 60 59 70 47 72 89 74 80 76 80 69 88 103 128 163 151 148 116 39 45 36 36 38 37 28 51 17 35 30 33 42 41 58 64 70 82 84 79 82 85 86 78 76 76 75 75
204 201 155 116 58 96 83 54 36 121 122 90 76 74 60 52 100 84 88 100 127 121 132 145 145 95 36 33 24 32 49 53 69 66 30 17 29 24 25 36 47 62 68 71 74 64 53 45 34 34 29 35 44 53
205 155 139 76 89 100 65 66 77 105 79 66 65 81 84 82 72 82 118 127 97 123 137 146 138 136 93 39 31 63 41 42 48 64 51 45 58 45 13 36 46 52 63 55 42 22 8 -1 1 6 7 4 10 21
161 137 103 85 79 49 62 49 84 82 71 66 75 79 92 85 105 124 131 143 108 120 145 150 134 112 93 43 35 33 55 78 74 85 44 34 62 48 35 56 54 64 52 46 28 22 16 21 29 30 33 38 46 46
149 144 126 59 55 72 81 88 93 86 90 84 105 127 105 124 104 112 112 116 106 119 124 118 141 122 87 44 36 29 19 128 177 117 92 59 36 37 31 35 47 70 68 59 47 35 31 29 30 32 44 36 18 10
179 210 31 56 89 135 139 99 89 107 95 95 91 116 133 131 121 118 130 116 109 131 175 176 184 123 102 82 40 15 -20 44 72 173 152 108 63 31 17 59 81 92 85 79 69 52 40 30 34 33 13 -1 -0 11
162 82 106 139 131 164 130 108 94 93 101 87 99 95 115 120 127 130 136 126 140 149 168 183 170 182 179 176 52 -34 -67 -39 -24 10 34 48 68 31 24 66 94 88 94 90 77 61 47 29 18 17 -14 -20 -15 2
95 115 108 126 146 123 106 105 115 94 81 94 95 95 116 118 124 123 129 131 136 144 146 151 178 154 101 93 61 22 24 -27 -23 -7 5 30 34 23 23 49 73 82 89 76 69 52 34 19 10 24 6 -11 2 12
134 158 179 177 164 139 117 114 92 98 83 80 99 112 117 128 138 144 138 128 142 184 176 182 148 113 122 86 61 37 9 -22 -15 -3 -10 -9 29 18 21 34 45 65 70 55 40 33 38 23 18 26 31 28 14 -0
242 228 228 174 165 152 121 93 102 79 78 106 107 132 127 144 162 171 162 152 208 192 188 124 106 89 75 55 54 68 26 -10 8 28 23 -13 1 22 46 37 53 71 60 54 35 20 11 18 18 46 49 42 39 34
231 202 193 157 122 111 111 115 90 90 116 120 130 123 131 150 161 191 155 196 157 119 135 114 87 72 59 48 44 40 10 -15 -12 23 39 25 10 9 36 46 74 61 46 28 16 19 16 25 44 55 54 39 48 38
170 151 136 111 115 124 98 101 121 130 134 112 118 136 137 155 153 145 179 137 98 69 84 75 39 38 44 42 38 20 5 -21 -14 18 48 47 36 30 24 20 20 23 28 29 32 28 29 41 47 54 49 56 53 41
109 106 104 115 125 118 97 123 118 126 131 130 137 138 151 141 149 188 175 139 98 100 96 53 33 17 16 19 14 7 -2 15 -8 8 26 41 45 42 37 42 46 35 33 36 37 45 50 44 42 57 53 52 46 34
113 116 111 133 116 123 115 115 124 129 117 127 151 140 131 126 160 155 113 87 118 99 67 56 9 11 4 -13 -13 -21 -19 -0 -28 -20 -7 8 30 38 36 39 35 22 34 59 51 47 50 55 54 51 48 46 32 31
133 99 108 91 101 114 94 120 102 86 100 110 84 98 99 123 150 79 47 28 19 17 54 48 2 -7 -14 1 -6 -9 -13 32 14 -16 -25 -20 -8 15 21 26 30 33 38 55 59 45 42 45 44 40 31 30 39 63
114 92 87 88 111 122 142 135 129 122 109 83 81 102 128 147 66 29 37 28 17 20 42 26 48 48 15 -1 -3 -16 30 60 50 5 3 -13 -22 -7 12 10 8 9 30 35 44 42 31 21 22 20 16 31 38 41
76 74 102 99 140 142 165 151 118 96 91 70 114 84 68 50 42 64 21 -5 -11 42 59 27 9 32 33 19 36 85 66 53 36 19 -1 -9 -11 6 20 29 45 34 48 58 57 55 40 19 1 -3 10 19 43 54
86 88 125 137 136 119 71 76 62 71 110 154 153 157 131 104 75 53 40 34 -42 -33 34 56 41 69 96 107 129 128 110 77 32 -6 1 6 -2 -13 46 100 112 127 113 87 64 54 34 23 7 9 27 38 42 42
95 89 133 113 91 40 41 76 63 86 113 147 156 160 164 159 139 127 92 -2 -28 -4 53 73 70 80 45 34 19 48 80 107 135 96 45 23 16 22 36 69 133 158 142 124 105 90 72 73 64 56 50 55 47 36
88 105 88 53 23 40 71 94 92 103 125 143 179 194 183 130 84 46 76 74 64 64 66 49 49 56 62 87 97 57 16 70 119 117 119 122 106 82 56 61 114 157 156 128 103 99 88 71 63 54 47 45 40 48
26 38 50 39 32 43 51 64 82 124 155 158 132 171 139 142 99 53 58 124 122 86 57 78 66 54 56 53 72 78 18 54 60 70 58 80 93 89 105 143 168 166 154 137 124 105 82 73 61 47 45 44 45 48
47 40 46 42 46 40 66 96 124 122 162 166 147 156 171 140 92 56 64 85 70 75 89 76 67 77 71 70 75 84 79 77 62 49 47 58 75 102 150 174 175 157 144 134 115 89 72 67 58 49 45 48 47 44

GFSWCAN_con_3kmhel_093.txt.gz
Helicity
326 500 330 205 194 140 54 62 86 91 62 22 1 -12 -11 -3 25 30 24 43 71 21 48 71 95 103 51 -3 -22 3 -7 4 56 49 39 19 15 12 16 9 13 20 25 15 12 29 36 25 32 55 50 58 49 65
355 443 262 239 277 170 83 74 97 107 62 29 -2 -1 -8 -9 25 42 28 24 41 -15 -4 65 88 93 73 13 -24 -30 -12 -2 43 37 37 22 14 12 10 24 12 23 13 28 22 26 22 23 26 44 41 34 48 50
357 398 327 257 246 130 75 90 107 114 72 43 4 19 13 3 17 34 26 29 13 6 -10 36 61 89 72 50 31 -21 -20 17 29 21 32 17 12 9 17 10 17 4 4 19 37 30 33 29 41 51 58 45 48 55
382 488 354 294 268 148 103 117 123 103 77 46 9 32 33 16 10 43 16 20 32 45 52 17 38 58 45 51 20 11 11 38 27 22 20 9 13 -3 3 0 9 -2 13 11 19 19 18 22 33 44 48 47 42 50
383 561 447 384 216 153 128 139 116 85 82 42 23 41 39 49 50 53 33 23 40 39 82 32 28 43 59 80 39 16 25 37 43 46 28 15 11 7 11 9 -3 0 10 19 14 18 19 15 26 32 42 44 56 47
441 560 446 331 169 165 143 142 120 88 87 32 38 42 41 61 46 7 33 28 31 42 107 81 71 46 56 43 54 27 29 51 48 60 61 46 21 15 10 7 -18 -10 3 14 22 23 22 31 46 48 50 60 65 63
475 688 402 352 234 172 162 150 115 106 85 30 41 46 26 43 21 4 47 51 36 35 83 68 80 74 65 52 62 47 30 30 36 51 62 67 61 55 19 63 11 10 20 27 33 26 33 24 30 65 76 73 72 67
642 655 507 483 232 173 152 148 110 130 53 50 57 69 43 93 49 12 47 66 46 70 74 74 74 115 57 63 56 62 58 25 23 32 54 51 70 70 22 15 10 18 28 52 68 61 45 47 60 70 79 77 83 79
666 637 546 439 193 150 163 145 128 122 64 77 96 66 35 50 22 3 61 73 41 67 73 71 79 91 99 94 54 60 71 62 42 33 40 60 66 59 33 25 28 31 23 28 52 60 60 62 67 76 79 90 79 68
687 725 657 438 197 157 169 140 156 97 84 104 95 74 4 42 19 43 47 43 49 49 63 69 95 87 136 116 103 49 71 70 64 35 47 35 59 62 44 39 51 63 61 48 49 52 52 56 58 73 83 84 83 79
863 865 786 500 154 184 156 145 157 93 105 93 114 105 64 34 30 42 68 54 45 65 58 68 98 97 109 150 134 51 69 57 62 18 48 52 31 51 49 44 52 56 63 81 84 85 94 97 86 84 89 91 85 86
809 786 655 218 194 185 140 162 101 96 56 55 85 83 62 42 68 101 83 45 58 61 70 76 67 108 88 105 120 68 54 61 61 42 53 13 16 15 36 25 30 43 48 58 72 76 85 96 98 98 90 88 86 79
1033 680 303 172 179 145 124 96 63 77 143 53 96 66 42 45 98 84 79 48 52 52 42 62 52 92 89 91 119 92 75 74 51 66 56 68 22 26 23 25 30 26 38 48 59 64 62 52 42 33 21 15 17 24
708 387 167 182 151 111 97 63 54 126 102 117 105 149 129 136 65 95 71 70 44 71 54 55 58 98 112 129 122 163 62 54 100 98 79 79 66 71 51 28 29 34 50 60 65 59 45 29 23 31 35 36 49 56
418 223 204 177 152 119 67 49 94 67 120 97 93 147 153 92 117 101 87 95 62 71 73 73 80 117 114 142 137 131 108 110 120 115 68 64 62 44 39 37 32 49 62 57 55 51 45 33 28 28 36 46 43 44
313 277 216 188 129 83 82 88 74 109 99 86 114 141 107 127 110 111 101 91 74 88 80 80 71 93 109 138 194 188 234 134 -2 20 29 65 37 30 24 28 22 58 71 68 70 59 50 40 29 18 28 30 33 30
320 421 172 135 106 71 73 100 147 117 83 101 104 136 117 128 109 102 89 66 74 100 88 84 97 84 149 175 207 185 179 -6 -59 -4 30 10 -2 8 17 3 36 73 85 98 96 86 76 57 31 21 17 23 19 14
298 182 117 106 83 114 126 145 122 87 105 92 104 98 141 150 151 120 90 93 101 105 111 108 145 198 172 263 219 146 68 21 40 29 60 6 -5 -15 -19 -1 38 67 71 73 66 86 86 67 47 22 9 5 2 -2
185 141 93 63 59 125 155 135 87 90 95 95 119 118 142 134 117 109 118 130 140 146 145 137 139 134 156 185 162 94 63 54 23 9 59 -3 -10 -13 -18 5 44 65 62 61 68 74 65 47 43 34 11 13 15 -10
159 157 107 56 101 151 128 86 89 88 83 98 126 124 126 119 118 117 123 135 146 176 159 139 146 189 198 137 103 92 82 70 53 14 48 -11 11 28 1 22 51 50 55 57 63 47 38 19 18 28 22 9 15 8
192 167 156 137 168 110 85 73 104 94 98 122 110 112 112 114 124 127 144 168 195 168 156 155 173 138 126 95 91 80 77 81 81 76 67 15 30 16 8 8 47 78 76 56 50 46 23 -21 -11 28 38 30 31 34
167 120 127 145 99 102 93 122 99 111 119 106 105 94 116 126 126 148 161 201 180 135 181 165 147 112 98 82 63 63 50 51 49 46 4 -7 31 40 29 24 26 60 73 42 44 45 29 15 27 28 28 28 45 38
136 152 151 113 94 109 99 123 133 128 115 87 100 115 117 110 106 125 151 131 110 101 121 122 89 74 66 39 44 34 42 50 53 40 9 -4 21 50 39 29 19 22 35 34 25 16 34 10 14 25 32 47 46 41
147 123 109 105 115 112 92 122 122 121 117 119 116 113 103 102 119 162 136 122 140 132 134 129 104 66 35 12 12 11 10 31 24 -3 -9 -2 36 47 38 31 33 35 38 39 21 18 27 25 28 41 41 48 47 41
109 113 94 116 107 117 130 134 137 132 125 109 124 121 119 120 151 132 112 113 92 83 98 76 81 47 16 -6 -8 -5 9 40 10 -20 -49 -46 -18 38 49 28 21 20 34 33 36 37 38 44 44 44 46 48 41 28
119 106 103 88 108 130 112 135 115 113 123 127 108 123 126 145 145 104 99 60 48 38 44 67 72 46 -29 -7 -3 4 -13 21 55 9 -14 -2 -18 -25 -21 -4 18 24 19 29 36 32 35 36 35 28 22 15 25 35
116 100 93 96 110 116 148 151 151 154 145 118 116 124 120 90 53 51 55 32 -9 -29 10 41 60 58 3 12 22 -8 19 69 60 14 22 30 4 11 15 -8 -30 -12 12 24 31 37 30 21 18 6 4 17 17 15
88 83 102 100 149 144 150 156 139 101 109 128 167 119 106 68 65 75 69 16 -14 -25 5 9 57 64 62 51 43 60 92 109 79 30 -1 9 15 15 16 -9 30 27 41 49 52 57 50 33 23 18 9 8 19 24
115 97 122 138 137 125 91 101 87 76 82 109 92 85 88 97 89 71 55 44 37 29 -22 -46 -13 37 62 67 54 62 77 85 67 24 15 2 0 -7 58 67 60 104 111 94 76 71 60 46 35 26 17 16 21 23
107 97 123 99 84 62 53 44 24 39 58 81 93 100 104 111 96 97 108 107 98 86 84 67 43 58 14 -17 -22 0 31 81 131 104 64 39 13 33 58 53 67 102 141 152 133 101 83 83 82 54 45 48 48 41
69 74 71 50 20 9 25 49 52 56 73 85 141 170 171 138 95 85 151 131 61 -1 71 68 103 100 73 46 22 5 17 38 51 63 85 107 83 74 62 53 74 110 138 148 130 112 101 79 70 55 63 56 37 38
-7 -4 11 6 -3 17 36 40 48 82 130 154 156 211 196 212 143 84 96 75 105 121 136 138 138 125 84 78 62 40 5 40 38 37 22 50 71 70 83 96 116 131 144 141 127 108 97 86 73 68 54 36 34 35
27 19 15 11 5 10 30 40 72 74 128 133 140 141 108 92 93 82 65 47 41 30 26 33 48 66 66 59 56 46 47 43 38 38 33 32 38 67 110 129 132 137 147 141 128 117 108 96 75 58 49 35 23 23

GFSWCAN_con_3kmhel_096.txt.gz
Helicity
687 112 308 413 370 301 181 92 63 40 98 103 78 41 15 12 17 -14 -4 -7 -40 -63 -39 17 48 68 66 61 87 -6 -1 -18 -11 -16 -11 13 13 19 6 11 20 23 26 29 34 40 38 31 16 41 52 61 65 99
442 293 322 457 379 267 284 156 124 90 107 101 69 37 11 4 13 -14 -23 -33 -56 -72 -44 -3 33 45 51 35 37 5 -6 -7 -4 -11 7 12 13 13 20 18 8 13 32 37 30 42 32 32 34 45 37 46 47 47
338 454 349 452 360 317 311 159 110 110 125 91 58 35 19 4 11 -19 -21 -28 -15 -38 -32 -17 7 42 44 46 19 1 -2 -5 -1 7 8 19 9 12 22 19 16 6 7 23 43 37 35 31 39 44 45 43 63 64
367 620 323 445 465 288 179 112 90 122 109 82 50 44 25 13 16 -14 -15 -26 -25 15 -8 1 -21 -1 24 35 35 19 10 14 14 17 13 11 12 7 16 14 6 15 14 21 27 20 16 23 33 44 53 50 48 60
422 513 351 600 430 273 267 105 110 135 100 77 50 50 21 20 9 5 11 -0 -14 -20 12 8 5 26 22 53 42 44 45 24 13 12 12 3 17 11 17 20 -1 -1 18 24 37 42 32 32 29 22 28 43 35 30
355 553 259 505 419 344 298 112 127 141 112 72 68 54 39 45 34 -17 13 11 7 9 26 24 27 45 44 55 72 65 61 50 38 9 4 40 59 34 12 18 4 -9 -4 14 33 39 31 37 41 45 48 51 54 57
339 445 300 485 498 383 354 138 160 148 112 92 77 57 34 34 -36 -0 13 27 18 12 26 44 56 69 68 78 72 68 59 55 46 33 12 26 54 70 48 41 36 5 11 15 16 18 24 23 33 51 55 58 69 76
361 335 422 561 495 438 288 172 186 156 116 106 86 69 44 57 5 17 34 46 26 35 27 48 53 61 73 106 117 81 66 60 59 37 21 -2 40 66 42 53 39 25 22 21 47 47 44 51 45 50 55 54 61 72
373 166 591 602 622 435 249 194 205 147 144 127 122 96 91 58 -3 10 48 59 41 35 51 39 42 52 69 98 113 112 71 100 60 42 32 34 7 -14 52 76 60 57 43 34 32 40 42 45 47 53 63 77 74 78
587 372 818 574 586 498 247 224 183 154 171 163 141 141 143 99 31 44 33 34 51 50 43 43 24 43 51 70 98 127 94 108 93 51 22 27 23 52 14 -6 13 42 47 47 34 29 29 41 44 54 71 89 95 92
164 590 722 576 625 510 240 220 186 199 182 223 176 162 98 28 15 30 16 62 67 66 53 37 26 33 47 62 69 98 119 125 133 67 32 17 38 22 49 66 59 55 61 63 53 55 68 70 68 65 79 90 91 89
489 760 747 746 721 538 237 193 169 249 158 114 113 134 96 103 65 67 73 61 70 69 46 36 39 35 40 47 55 79 111 110 160 89 73 45 52 2 19 53 35 37 40 47 51 48 50 57 64 66 73 71 70 70
647 817 986 915 740 628 164 133 171 138 203 164 177 176 102 112 127 111 142 114 85 41 30 31 43 41 42 44 64 67 107 144 124 153 141 89 21 6 23 16 24 27 29 22 30 39 48 52 59 53 41 32 28 36
864 1002 1002 1107 592 219 118 136 89 186 194 242 236 307 140 162 137 134 107 89 67 47 52 50 48 52 60 66 85 80 107 149 230 255 211 77 27 27 34 11 14 13 27 38 56 58 62 58 49 44 42 37 43 54
984 1026 759 606 269 124 146 86 171 182 225 249 182 197 135 143 130 103 143 125 73 47 58 61 68 75 76 83 83 71 106 147 232 278 138 45 10 12 31 11 1 12 34 53 55 60 71 75 53 46 41 39 36 40
1045 845 553 237 143 145 94 153 199 145 219 195 147 134 127 184 180 147 130 108 65 68 66 57 69 78 79 85 119 103 179 221 268 179 39 6 34 34 37 1 -15 -11 30 82 83 92 100 90 70 49 35 22 26 33
844 907 211 139 162 133 152 233 230 271 196 143 140 140 123 122 132 105 86 72 65 65 75 64 75 73 107 106 128 140 177 225 194 64 10 42 28 29 40 3 -22 -30 35 90 103 141 156 125 84 51 23 21 24 24
1139 381 153 203 205 246 319 308 279 177 199 144 150 126 139 128 171 149 110 92 77 83 85 81 106 123 107 146 132 147 171 145 83 46 28 38 35 53 44 3 -18 -24 -2 52 58 75 83 80 64 52 45 25 18 14
570 209 171 153 313 359 342 209 138 192 170 150 135 159 165 185 176 142 133 103 109 113 133 106 93 84 95 129 131 138 122 113 93 46 48 77 45 48 47 13 9 -8 9 31 36 58 74 69 75 56 51 58 28 16
221 248 229 261 269 322 242 162 157 165 156 116 138 163 163 158 153 146 136 132 137 135 129 89 74 104 143 133 122 111 105 103 91 64 53 65 40 53 67 12 22 15 33 42 35 40 66 63 54 29 32 46 53 31
340 291 258 259 269 190 147 179 182 131 108 128 142 147 141 147 143 131 137 136 163 145 95 88 123 151 141 107 98 90 78 89 85 87 72 63 47 46 41 13 31 34 79 64 39 40 37 48 29 10 18 39 58 42
305 178 292 254 222 180 138 128 108 113 113 109 131 127 126 129 128 134 132 148 133 120 161 174 178 137 104 88 76 76 69 70 61 59 42 30 48 44 43 33 51 40 40 78 50 39 47 46 27 44 51 52 32 23
177 233 214 206 161 136 120 132 120 138 125 107 122 136 123 118 110 117 103 83 74 104 152 157 157 135 97 70 58 53 60 61 55 47 41 44 32 26 41 41 38 34 33 36 31 26 25 7 28 57 33 20 27 36
140 162 138 119 104 107 105 129 127 135 130 130 127 126 107 109 100 113 89 87 118 138 148 132 110 91 72 54 47 42 28 33 15 7 5 11 1 5 35 44 35 38 37 44 32 14 13 21 21 24 28 34 43 47
114 121 90 121 110 123 132 143 143 147 140 132 137 123 103 98 113 99 89 97 112 128 118 89 70 61 59 56 30 3 16 25 14 3 -0 14 4 -38 -31 -8 17 21 33 30 22 23 21 29 38 41 42 40 30 19
117 102 106 96 110 114 100 132 121 126 140 136 117 116 106 113 102 67 86 99 87 60 50 56 65 59 45 35 30 27 21 38 44 21 4 28 30 -0 -28 -44 -35 -30 -0 32 32 21 24 33 34 28 23 14 5 13
92 77 90 107 104 111 135 141 134 128 119 108 100 110 118 108 77 111 41 52 44 10 2 4 7 81 60 63 45 14 45 56 63 49 55 66 75 84 78 6 -20 -23 8 7 13 20 27 32 30 23 24 29 11 9
81 83 79 84 109 111 112 114 98 84 98 106 139 121 124 105 109 55 45 73 43 38 17 -14 24 60 124 94 70 68 62 57 61 54 47 49 66 66 68 55 25 23 33 23 29 46 51 51 40 25 21 18 20 17
99 87 90 117 107 93 75 79 73 85 96 99 107 96 68 54 58 65 63 74 100 100 81 59 48 58 39 81 96 74 44 39 37 39 47 77 59 6 45 68 72 81 122 81 55 59 66 69 53 38 38 35 34 31
69 66 86 79 80 78 80 61 67 35 27 42 43 37 36 58 78 92 94 111 130 127 97 62 37 51 39 31 6 -10 -0 7 21 27 26 45 20 25 37 43 52 65 95 121 132 98 90 88 76 55 52 49 44 37
76 87 104 103 86 52 28 2 3 12 25 39 89 116 130 112 87 88 116 101 64 61 66 48 43 43 38 55 87 54 29 46 32 18 23 37 45 57 62 46 59 80 101 121 127 122 109 61 45 53 56 52 40 35
88 80 63 41 2 -20 -14 -7 14 48 76 106 119 150 123 143 127 103 89 98 120 120 78 60 87 99 91 83 67 53 46 37 25 28 27 40 51 53 61 77 79 95 115 117 111 108 98 96 78 61 57 45 42 41
41 24 6 -17 -28 -26 -19 3 31 45 84 87 65 62 66 81 74 92 75 62 66 48 18 21 46 65 60 43 53 60 71 50 48 52 42 34 46 57 82 82 90 106 119 115 108 105 108 112 105 87 65 52 37 29

GFSWCAN_con_3kmhel_102.txt.gz
Helicity
-35 -56 -173 47 511 682 50 301 247 239 221 196 35 30 42 62 70 66 55 24 9 -4 -1 6 33 48 40 14 13 -15 18 -3 -5 19 13 19 9 8 19 13 0 8 -14 14 42 46 46 17 14 50 70 96 79 79
-26 -65 -149 -299 338 498 173 303 266 252 216 125 17 10 46 62 71 91 75 34 34 19 -8 -4 1 -3 -3 -18 -8 -13 16 -6 -4 5 10 6 11 7 12 14 10 12 17 15 31 21 8 10 22 23 48 44 69 94
-34 -45 -87 -128 236 480 364 112 317 330 279 273 -17 36 44 48 96 90 107 53 74 27 -5 6 -8 -6 -18 -32 -45 24 20 -5 1 -8 -1 2 6 -6 0 -11 4 26 15 14 37 36 31 37 22 28 49 50 59 72
-35 -39 -94 -128 133 352 22 146 269 351 412 225 54 53 54 64 95 116 125 81 27 16 19 1 8 8 -11 -21 -21 -6 22 11 5 4 7 14 17 -5 -9 -13 0 10 25 35 39 59 25 24 43 41 43 70 39 41
-41 -28 -79 -40 17 143 440 256 269 248 274 198 49 58 60 89 124 162 147 72 40 20 32 6 8 9 7 4 11 18 24 25 34 52 56 49 0 6 1 19 -1 19 32 49 57 58 40 31 15 16 62 49 58 50
-27 -9 -7 -123 -71 197 215 327 339 377 306 138 53 66 63 78 98 131 77 -20 4 35 43 34 4 14 18 14 29 42 33 32 35 45 44 14 -3 7 19 18 41 55 68 44 31 42 36 44 37 43 33 43 54 65
-4 1 -50 -14 45 266 164 331 419 411 246 54 72 67 63 140 176 123 68 46 24 41 37 48 32 15 21 24 22 37 46 47 49 61 58 41 39 49 57 74 23 24 49 57 52 60 34 73 59 64 56 52 54 51
0 2 4 -90 97 429 383 392 470 385 199 78 92 105 103 135 96 80 116 89 48 65 45 56 50 39 18 19 31 31 50 57 67 58 59 79 59 70 114 104 22 10 28 88 88 76 62 58 59 63 59 49 40 46
10 18 75 -83 61 332 500 452 485 434 202 115 120 112 177 167 145 111 90 75 69 50 59 50 85 60 28 40 42 38 39 53 68 79 77 87 110 103 106 40 7 -23 -2 -16 63 55 57 60 64 65 64 52 40 44
31 32 -8 24 283 284 555 606 556 483 184 104 246 229 183 163 98 109 122 84 113 77 62 80 74 80 47 52 54 57 49 58 74 74 85 102 97 109 72 43 33 22 -9 -35 0 67 75 78 96 66 61 60 52 62
54 52 47 76 245 562 544 603 555 375 155 358 274 229 190 130 176 154 107 55 79 95 101 130 122 95 58 85 77 53 71 68 89 91 75 80 90 116 74 45 25 18 17 9 1 35 49 49 61 84 82 67 59 58
70 62 67 431 422 571 516 595 607 642 420 248 168 188 240 194 202 178 171 100 65 92 110 123 115 88 74 74 76 65 87 89 112 97 90 71 74 95 84 52 39 24 22 23 27 7 35 37 59 59 68 93 80 74
71 94 81 453 446 561 575 543 554 267 232 337 246 218 183 216 219 185 168 159 115 103 94 112 129 83 67 59 75 83 101 111 104 110 107 89 106 102 78 65 55 42 32 30 30 25 33 45 40 55 71 79 90 90
82 125 224 261 562 594 547 634 327 216 324 291 310 429 284 212 192 219 195 157 120 125 149 144 111 73 75 77 77 112 112 132 162 167 116 122 140 136 108 62 51 50 49 44 37 41 46 42 46 49 58 70 80 93
85 201 190 577 684 612 686 491 407 254 279 419 386 341 299 237 201 189 178 166 186 164 140 134 111 84 88 93 84 121 130 152 112 120 156 178 173 157 128 101 76 50 43 46 47 63 64 51 75 65 68 73 72 75
196 382 606 749 709 731 726 592 327 251 333 384 353 311 263 344 300 234 181 194 205 151 134 111 112 101 105 116 136 123 147 125 110 141 173 187 161 135 113 85 78 82 61 54 71 76 57 63 71 72 87 90 91 75
308 579 659 809 758 712 519 714 511 412 369 425 460 354 257 251 208 150 117 154 120 147 165 137 125 101 134 128 123 107 111 122 143 159 164 156 132 113 101 92 86 74 64 64 81 88 73 87 111 87 77 78 66 57
445 559 917 805 853 812 948 622 561 502 568 522 430 388 313 248 169 166 170 166 159 151 136 121 109 128 127 130 118 108 124 134 133 142 138 124 123 123 115 89 79 65 53 62 90 94 106 82 75 49 60 85 88 96
787 959 878 754 1029 1118 960 646 555 570 599 485 418 384 348 271 197 153 214 206 166 126 125 106 126 107 104 102 119 135 132 126 129 133 125 115 115 116 102 86 63 52 65 72 87 95 91 80 74 61 63 78 92 107
891 939 819 834 933 1163 880 656 470 488 596 485 431 370 249 168 175 199 224 197 182 154 138 108 92 93 106 114 119 117 113 126 139 126 123 118 111 104 87 71 63 63 68 76 82 70 98 80 48 55 59 65 80 99
1135 1032 1017 1099 1121 748 459 783 624 444 488 517 364 300 191 210 207 201 204 190 175 140 109 76 83 114 133 126 112 105 110 131 133 134 119 107 97 85 68 50 45 57 63 67 70 90 54 69 14 44 47 48 35 33
1107 1020 1297 1057 1035 715 451 583 426 370 461 404 313 200 154 155 164 173 162 152 107 87 94 99 112 127 121 109 110 116 119 114 106 93 62 54 77 65 52 45 55 55 56 57 55 55 63 16 50 61 43 23 17 26
879 1045 1143 954 885 606 562 449 564 504 397 279 231 199 140 147 166 166 132 89 72 72 102 102 102 105 98 100 108 101 109 105 94 78 59 48 29 18 21 16 27 45 52 45 37 39 42 12 28 42 36 55 68 56
747 765 764 658 389 371 393 487 386 340 228 214 161 148 147 155 135 148 116 94 76 94 94 87 100 106 109 120 117 119 99 105 88 59 45 46 18 13 25 30 27 48 58 34 30 37 38 23 22 61 77 74 53 49
689 630 466 538 460 356 380 369 278 232 195 178 169 161 122 130 140 116 103 81 90 99 98 110 96 90 111 112 104 95 90 121 104 69 40 67 55 31 25 29 34 49 108 104 49 -3 -22 41 77 74 78 63 43 24
587 405 438 499 448 330 264 228 175 162 193 185 167 140 123 125 130 100 71 56 70 89 93 81 82 93 70 49 78 83 81 102 126 85 54 75 79 77 75 80 70 40 102 132 117 6 5 14 26 20 16 -6 -9 22
342 386 292 223 186 179 170 179 179 188 155 121 113 114 119 122 82 74 76 66 83 69 69 75 79 71 47 14 24 37 74 113 126 100 92 70 56 73 113 133 118 77 114 114 118 124 78 54 57 42 31 32 26 28
183 241 216 194 194 195 182 192 153 136 117 84 104 101 87 74 76 89 109 91 94 114 101 79 73 75 66 57 68 72 65 90 117 107 76 37 56 79 84 54 48 22 121 117 95 91 96 88 78 66 56 39 35 36
173 174 172 219 198 195 173 141 116 103 78 52 106 96 72 79 91 99 73 61 68 86 71 62 64 81 83 80 77 88 104 114 105 91 88 61 8 7 33 -2 -14 7 51 96 67 91 122 120 113 93 69 52 44 44
187 160 162 172 172 150 120 109 93 76 93 84 77 82 79 49 25 26 48 76 88 82 89 92 89 100 91 105 106 118 103 112 113 97 74 59 39 58 68 28 6 23 53 84 108 96 126 138 128 110 98 72 52 47
135 149 153 153 138 112 94 80 69 64 59 53 35 63 49 9 22 58 74 85 93 101 110 115 119 114 118 106 87 87 97 74 73 76 74 62 55 42 20 12 24 43 61 88 97 112 126 90 82 89 88 86 72 66
134 126 116 130 103 82 62 83 75 75 57 56 48 34 33 36 28 21 22 61 83 85 68 78 94 80 74 67 53 57 30 74 86 67 53 65 85 83 66 49 45 50 65 81 94 115 119 86 79 76 76 81 93 88
144 146 150 143 135 129 100 91 90 63 44 29 13 2 -4 2 -9 8 18 28 44 62 75 80 83 75 73 73 80 96 95 118 104 72 58 47 33 44 60 67 74 67 62 81 92 104 102 94 81 78 75 78 87 85